THORAD AGENA D DEB, 4895

Orbit data source: Space-Track

THORAD AGENA D DEB, 4895 is space debris in LEO originally from a launch on Tue, 30 Sep 1969 UTC launched from the Air Force Western Test Range (AFWTR). Debris objects in space refer to the collection of defunct objects orbiting the Earth. Examples of debris include non-operational satellites, rocket bodies, and fragments generated from explosions, collisions, or faulty payload assembly.

Loading next visibility...
Identifier
4895, 1969-082HE
Orbit
LEO
Country
Flag of USUS
Related business
Manufacturer
Unknown
Mission
Spacecraft
Bus & Motor
Unknown
Mass
Unknown
Launch date (UTC)
1969-09-30 (57 years ago)
Launch vehicle
Unknown
Launch site
Air Force Western Test Range (AFWTR)
Object type
Payload
Rocket body
Debris
Shape & HBR
Unknown shape, 0.1 m
Radar Cross Section
Medium (>0.1 m² and <1 m²)

Expand to show TLE details & history
Last TLE update: 1 day ago

TLE from 1 day ago
0 THORAD AGENA D DEB
1 04895U 69082HE  26173.13614067  .00000686  00000-0  22066-3 0  9997
2 04895  70.1709  68.8751 0042358 280.6374  78.9988 14.42824628943915
Epoch: 2026-06-22T03:16Z
TLE epoch observation values (Epoch: 2026-06-22T03:16:02.553Z)
Latitude
-0.00008°
Longitude
109.53804°
Altitude
745.918 km
Speed
7.485 km/s
True Right ascension
04h 35m 30s
True Declination
0° 00' 00"
Sunlit
Object was in daylight at epoch
Visualization orbit readout
Latitude
Unknown
Longitude
Unknown
Altitude
Unknown
Speed
Unknown
Apparent Right ascension
Unknown
Apparent Declination
Unknown
Sunlit
N/A
Visualization observer readout
Local Sidereal Time
22:26:30
Azimuth
Unknown
Elevation
Unknown
Doppler factor
Unknown
Orbital elements
Apogee altitude
777.344 km
Perigee altitude
716.981 km
Semi-major axis
7,125.3 km
Eccentricity
0.00424
Inclination
70.1709°
RAAN
68.8751°
Arg. of periapsis
280.6374°
True anomaly
79.47574°
Mean anomaly
78.9988°
Eccentric anomaly
79.23722°
Mean motion
3.6086 °/min
Orbital period
99.76 mins
BSTAR
0.00022066
Loading maneuver chart data...
Computing Atmospheric mass density...

Documentation

Showing up to 5 results
|